ROMMA est une association bénévole à but non lucratif. Votre soutien est indispensable : ADHERER à ROMMA ou FAIRE un DON

Val-d'Isère - (73, Savoie)

Haute-Maurienne (1850 m)   Longitude: 6° 58' 52'' E   Latitude: 45° 26' 53'' N Station partenaire n°93
 

Détail journalier du     <<     >>

Température Precipitation Humidité Vent Dir Rafale Dir. rafale Ensol.
Heure (°C) (mm) (%) (km/h) (km/h) (min)
01:00 -0.70642ESE6ESE0
02:00 -0.20612E6SSE0
03:00 0.50503E13E0
04:00 -0.50502ESE10ESE0
05:00 -1.00472NE13ESE0
06:00 -0.70423ENE11ENE0
07:00 -0.10353ENE16E0
08:00 0.70316E19ESE0
09:00 1.802815E21ESE30
10:00 3.302912ESE19ESE60
11:00 5.202910ESE19E60
12:00 7.70253ESE11E60
13:00 10.60262SE11SSE60
14:00 6.30346ESE18E30
15:00 8.60335ESE15SE60
16:00 9.70303ESE15SE60
17:00 7.20374SE18OSO30
18:00 6.10496E15E0
19:00 5.30484E13ESE60
20:00 4.00547E13ESE30
21:00 3.80537E15E0
22:00 3.80528E16ESE0
23:00 3.30526E13ESE0
minuit 3.10507E16ESE0

Graphique du 01-04-2019

 

Serveur OMMA